[[{"header":{"parameterUnit":"m.s-1","parameterCategory":1,"la1":30.2991,"la2":30.254,"lo1":-89.0895,"lo2":-89.0444,"dy":0.0017,"dx":0.0017,"nx":28,"ny":28,"refTime":"2024-03-25T21:00:00:Z","depth":0,"parameterNumber":2,"parameterNumberName":"U-component_of_WINDS"},"data":[0,0,0,0,0,0,0,0,0,0,0,0,0,0,0,0,0,0,0,0,0,0,0,0,0,0,0,0,0,0,0,0,0,0,0,0,0,0,0,0,0,0,0,0,0,0,0,0,0,0,0,0,0,0,0,0,0,0,0.4575,0.4574,0,0.4442,0.444,0.4439,0.4384,0.4384,0.4385,0.4385,0.425,0.4246,0.4242,0,0,0,0,0,0,0,0,0,0,0,0,0,0.4787,0.4783,0.4575,0.4574,0.4572,0.4442,0.444,0.4438,0.4384,0.4384,0.4385,0.4385,0.4251,0.4246,0.4242,0,0,0,0,0,0,0,0,0,0,0,0,0,0.4678,0.4782,0.4576,0.4529,0.4524,0.4443,0.444,0.4438,0.4384,0.4384,0.4385,0.4385,0.4252,0.4247,0.4241,0.4197,0,0,0.4223,0.4221,0,0,0,0,0,0,0,0,0.4685,0.4671,0.4538,0.4532,0.4526,0.443,0.4465,0.4357,0.4384,0.4437,0.4385,0.4385,0.4309,0.4299,0.4273,0.419,0.4185,0.4223,0.4219,0.4217,0.4215,0,0,0,0,0,0,0,0.4692,0.4676,0.4523,0.4536,0.4529,0.4516,0.4501,0.4445,0.4372,0.4432,0.4428,0.4413,0.4306,0.4279,0.4269,0.4183,0.4223,0.4218,0.4214,0.4212,0.4061,0.406,0,0,0,0,0,0,0.4707,0.4683,0.4527,0.4519,0.4608,0.4512,0.4495,0.446,0.4373,0.436,0.4413,0.4411,0.4288,0.4276,0.4264,0.4209,0.4217,0.4211,0.4208,0.4061,0.4061,0.406,0,0,0,0,0,0,0.4712,0.4694,0.4532,0.4599,0.4578,0.4508,0.4469,0.4458,0.443,0.4358,0.4345,0.4398,0.4288,0.4273,0.4215,0.4203,0.4209,0.4203,0.4062,0.4061,0.406,0.4096,0,0,0,0,0,0,0.4718,0.4696,0.4677,0.4599,0.4575,0.4483,0.4468,0.4455,0.442,0.4416,0.434,0.4328,0.4287,0.4224,0.4209,0.4195,0.4199,0.4062,0.4061,0.406,0.4095,0.4096,0.4097,0,0,0,0,0,0.4726,0.4692,0.4676,0.4658,0.4549,0.4483,0.4469,0.4422,0.4419,0.4401,0.4355,0.4331,0.4207,0.4218,0.4201,0.4186,0.4063,0.4062,0.4061,0.4095,0.4096,0.4097,0,0,0,0,0,0,0.4769,0.468,0.4662,0.4602,0.455,0.4474,0.4448,0.4424,0.4373,0.4371,0.4316,0.43,0.4247,0.421,0.4224,0.414,0.4133,0.4129,0.4165,0.4166,0.4167,0.4176,0.4194,0,0,0,0,0,0.4772,0.4724,0.465,0.4604,0.4579,0.4519,0.4488,0.4456,0.4401,0.4379,0.4329,0.4277,0.4226,0.4194,0.4144,0.409,0.4074,0.4072,0.4073,0.4074,0.407,0.4042,0.404,0.4056,0.4056,0.4056,0,0,0.4776,0.4722,0.4695,0.4611,0.4567,0.4521,0.45,0.4451,0.4416,0.4371,0.4314,0.4276,0.4214,0.4159,0.4133,0.4127,0.4063,0.4072,0.4074,0.4069,0.404,0.4039,0.4038,0.4055,0.4055,0.4055,0,0,0.4761,0.4714,0.4672,0.4629,0.4564,0.4525,0.4515,0.4443,0.4416,0.4357,0.4324,0.4283,0.4196,0.4154,0.4122,0.4096,0.4072,0.4081,0.4085,0.4058,0.4057,0.4056,0.4047,0.4045,0.4078,0.4078,0.4078,0,0.4774,0.4702,0.4653,0.4607,0.4572,0.453,0.4488,0.445,0.4371,0.4349,0.4345,0.4238,0.4193,0.4129,0.4123,0.4097,0.4086,0.4088,0.4061,0.4059,0.4057,0.4049,0.4046,0.4079,0.4079,0.4079,0.4079,0,0.4723,0.4674,0.4648,0.4574,0.4537,0.4493,0.4439,0.4407,0.4381,0.4343,0.4286,0.4231,0.417,0.4153,0.4126,0.4086,0.4085,0.4072,0.4064,0.4058,0.4049,0.4046,0.4082,0.4081,0.4081,0.408,0,0,0.4728,0.4631,0.4622,0.459,0.4517,0.4478,0.4434,0.4374,0.4349,0.4298,0.426,0.419,0.4178,0.4142,0.411,0.4086,0.4071,0.4076,0.4074,0.4078,0.4026,0.4036,0.4033,0.4056,0.4055,0.4054,0.4031,0,0.4704,0.4621,0.4579,0.4515,0.4471,0.4432,0.4394,0.4346,0.431,0.4268,0.4229,0.4181,0.4168,0.4146,0.4121,0.4078,0.406,0.4079,0.4021,0.402,0.4037,0.4028,0.4038,0.4019,0.4027,0.4027,0.4026,0,0.4663,0.4613,0.4546,0.4481,0.446,0.4426,0.437,0.433,0.4276,0.4252,0.4213,0.4182,0.4136,0.4133,0.407,0.4084,0.4058,0.4034,0.4033,0.4025,0.4022,0.4021,0.4012,0.4009,0.402,0.4021,0.4021,0,0.4676,0.4592,0.4541,0.4514,0.4436,0.4414,0.4381,0.4327,0.4295,0.4247,0.4226,0.4173,0.4144,0.4104,0.4061,0.4062,0.4003,0.3995,0.3982,0.3983,0.397,0.3972,0.3957,0.3954,0.3954,0.3954,0.3954,0,0.4653,0.4613,0.4546,0.4514,0.447,0.4423,0.438,0.4344,0.4298,0.426,0.4224,0.419,0.4135,0.4094,0.4061,0.4014,0.4001,0.3981,0.3973,0.3984,0.3987,0.3966,0.3966,0.3953,0.3953,0.3954,0.3954,0,0.4658,0.4611,0.4554,0.4486,0.4468,0.4439,0.4381,0.4351,0.4314,0.4267,0.4254,0.4197,0.4148,0.4101,0.4035,0.4012,0.3966,0.3955,0.3984,0.398,0.3969,0.3971,0.3941,0.3935,0.3936,0.3936,0.3936,0,0.4646,0.4615,0.4545,0.4517,0.4485,0.4441,0.4409,0.4362,0.433,0.4268,0.4246,0.4194,0.415,0.4073,0.4026,0.3977,0.3964,0.3957,0.3956,0.397,0.3965,0.3967,0.3964,0.3958,0.3958,0.3958,0.3958,0,0.4631,0.4611,0.4565,0.4513,0.4476,0.4432,0.4387,0.4367,0.4312,0.4279,0.4228,0.4194,0.4128,0.4077,0.4023,0.399,0.3965,0.3959,0.3954,0.3965,0.3983,0.3974,0.3987,0.396,0.396,0.3959,0.3959,0.3959,0.4628,0.46,0.4547,0.4498,0.446,0.442,0.4389,0.4349,0.4306,0.4248,0.4224,0.4173,0.4123,0.4047,0.4015,0.3975,0.3969,0.3961,0.3959,0.3958,0.396,0.3991,0.3965,0.3965,0.3965,0.3965,0.3965,0,0.4612,0.4577,0.4533,0.4472,0.4435,0.4416,0.4366,0.4337,0.4292,0.4247,0.4205,0.4149,0.4101,0.4051,0.4001,0.3979,0.3966,0.3967,0.3968,0.3961,0.3968,0.3978,0.3978,0.3978,0.3978,0.3978,0.3978,0.3978,0.4599,0.4551,0.4524,0.4458,0.4423,0.4373,0.4346,0.431,0.4274,0.4212,0.4172,0.4141,0.4094,0.4041,0.3996,0.3983,0.3966,0.397,0.3954,0.3961,0.396,0.396,0.3969,0.3967,0.3967,0.395,0.395,0.395]},{"header":{"parameterUnit":"m.s-1","parameterCategory":1,"la1":30.2991,"la2":30.254,"lo1":-89.0895,"lo2":-89.0444,"dy":0.0017,"dx":0.0017,"nx":28,"ny":28,"refTime":"2024-03-25T21:00:00:Z","depth":0,"parameterNumber":3,"parameterNumberName":"V-component_of_WINDS"},"data":[0,0,0,0,0,0,0,0,0,0,0,0,0,0,0,0,0,0,0,0,0,0,0,0,0,0,0,0,0,0,0,0,0,0,0,0,0,0,0,0,0,0,0,0,0,0,0,0,0,0,0,0,0,0,0,0,0,0,2.2376,2.2381,0,2.2845,2.2851,2.2856,2.291,2.2906,2.2901,2.2897,2.3382,2.3399,2.3416,0,0,0,0,0,0,0,0,0,0,0,0,0,2.1524,2.154,2.2376,2.2382,2.2387,2.2844,2.2851,2.2857,2.2911,2.2905,2.29,2.2894,2.3377,2.3397,2.3418,0,0,0,0,0,0,0,0,0,0,0,0,0,2.1934,2.1545,2.2375,2.2469,2.2482,2.2843,2.2851,2.2859,2.2912,2.2905,2.2898,2.2892,2.337,2.3395,2.3421,2.3721,0,0,2.35,2.3511,0,0,0,0,0,0,0,0,2.1911,2.1965,2.245,2.2463,2.2479,2.2812,2.2729,2.3148,2.2914,2.2749,2.2896,2.2888,2.3199,2.3238,2.3342,2.3744,2.3765,2.3502,2.3518,2.3529,2.3536,0,0,0,0,0,0,0,2.1882,2.1945,2.2562,2.2456,2.2474,2.2488,2.2538,2.2808,2.3008,2.2763,2.2768,2.2823,2.3205,2.3317,2.3354,2.3772,2.3501,2.3525,2.3541,2.3551,2.4435,2.4443,0,0,0,0,0,0,2.1836,2.1921,2.2547,2.2576,2.2171,2.2508,2.2565,2.2712,2.3005,2.3043,2.2828,2.2823,2.3276,2.3323,2.3371,2.3737,2.3529,2.3553,2.3568,2.4427,2.4437,2.4445,0,0,0,0,0,0,2.1818,2.1892,2.2528,2.225,2.2332,2.2531,2.2695,2.2725,2.2837,2.3054,2.309,2.2905,2.3272,2.3334,2.3631,2.3755,2.3565,2.3588,2.4418,2.443,2.4441,2.4475,0,0,0,0,0,0,2.1793,2.1885,2.2002,2.2252,2.2347,2.2781,2.2703,2.2739,2.288,2.2879,2.3136,2.3172,2.3271,2.3592,2.3657,2.3787,2.3609,2.4408,2.4423,2.4437,2.4463,2.4486,2.4506,0,0,0,0,0,2.1763,2.1996,2.2008,2.2083,2.2497,2.2788,2.2842,2.2951,2.289,2.3009,2.3147,2.3164,2.373,2.3622,2.3696,2.3835,2.44,2.4419,2.4436,2.4454,2.4482,2.4505,0,0,0,0,0,0,2.1759,2.2031,2.2047,2.2368,2.2554,2.2797,2.2951,2.2978,2.3187,2.3177,2.3303,2.3361,2.3651,2.3773,2.3648,2.4137,2.4059,2.4093,2.4048,2.4076,2.4096,2.4062,2.363,0,0,0,0,0,2.1795,2.2008,2.2234,2.2495,2.2587,2.2752,2.2883,2.2949,2.3148,2.3228,2.3388,2.3581,2.3802,2.3945,2.4161,2.4479,2.4534,2.4611,2.4632,2.4648,2.4676,2.4848,2.4884,2.4504,2.4504,2.4504,0,0,2.1873,2.2047,2.2175,2.2499,2.2651,2.2867,2.2819,2.3052,2.3214,2.3264,2.3553,2.3676,2.3899,2.4206,2.435,2.4317,2.4792,2.4671,2.4682,2.4703,2.487,2.4906,2.4938,2.4516,2.4514,2.4512,0,0,2.2125,2.228,2.2511,2.2662,2.2891,2.2998,2.3052,2.329,2.3373,2.3663,2.3703,2.3896,2.4276,2.4431,2.456,2.4859,2.4881,2.4926,2.5037,2.5203,2.5233,2.526,2.5364,2.54,2.4952,2.4953,2.4953,0,2.2194,2.2522,2.2628,2.2858,2.2996,2.3046,2.328,2.3422,2.371,2.3805,2.3762,2.4233,2.4388,2.4729,2.48,2.4904,2.4969,2.4899,2.522,2.5248,2.5275,2.5376,2.5415,2.4956,2.4956,2.4955,2.4955,0,2.2593,2.2819,2.2978,2.325,2.3407,2.3638,2.3776,2.3922,2.3971,2.4081,2.4372,2.4558,2.4808,2.4894,2.4948,2.5241,2.5213,2.5194,2.5119,2.5313,2.5409,2.5449,2.4962,2.496,2.4959,2.4958,0,0,2.2864,2.3184,2.3241,2.3361,2.3613,2.3789,2.4019,2.4261,2.4381,2.4576,2.477,2.5085,2.5066,2.5211,2.5281,2.5427,2.5646,2.5389,2.5396,2.5429,2.5977,2.599,2.6033,2.566,2.5668,2.5675,2.5957,0,2.3144,2.3555,2.3651,2.4003,2.421,2.4255,2.4455,2.4629,2.4736,2.4926,2.5044,2.5264,2.5224,2.5311,2.5457,2.5589,2.5758,2.557,2.5843,2.5851,2.5786,2.6084,2.6101,2.636,2.5996,2.6003,2.6007,0,2.3528,2.3725,2.4096,2.4312,2.4403,2.4581,2.4806,2.4988,2.5184,2.5251,2.5408,2.5461,2.5699,2.5608,2.5937,2.5806,2.5922,2.6003,2.6015,2.6047,2.5942,2.6123,2.6445,2.6484,2.6068,2.6064,2.6059,0,2.3684,2.4043,2.431,2.4412,2.4672,2.4795,2.4909,2.5098,2.5234,2.5431,2.552,2.5742,2.5864,2.6034,2.6144,2.6069,2.6463,2.6382,2.6524,2.6521,2.6608,2.6602,2.6953,2.6682,2.6681,2.668,2.6679,0,2.3988,2.4212,2.4382,2.4547,2.4797,2.4904,2.5149,2.5264,2.543,2.5616,2.5669,2.5842,2.5976,2.6167,2.6255,2.6511,2.6567,2.6626,2.6647,2.6623,2.6615,2.6702,2.6688,2.6691,2.6688,2.6686,2.6684,0,2.4208,2.4331,2.4624,2.4843,2.4902,2.5077,2.5264,2.5424,2.5527,2.5761,2.5822,2.5986,2.6213,2.6338,2.6624,2.6682,2.6968,2.698,2.6901,2.691,2.7045,2.703,2.7466,2.7528,2.7214,2.7217,2.7219,0,2.4394,2.4567,2.4801,2.4927,2.5042,2.5247,2.5384,2.5493,2.5633,2.5864,2.5995,2.6223,2.6413,2.6772,2.6917,2.7133,2.7151,2.7288,2.7185,2.7152,2.7152,2.714,2.7157,2.7307,2.731,2.7312,2.7314,0,2.471,2.476,2.4955,2.5169,2.533,2.5505,2.5679,2.5779,2.5916,2.6071,2.6301,2.6446,2.6733,2.6959,2.7185,2.7303,2.7332,2.7344,2.7389,2.7367,2.7313,2.7342,2.695,2.7335,2.7333,2.7332,2.7331,2.733,2.4919,2.5072,2.5258,2.5472,2.5612,2.577,2.5929,2.6049,2.6242,2.6483,2.6534,2.6776,2.6961,2.7268,2.7389,2.7579,2.7554,2.7618,2.7635,2.7649,2.7653,2.728,2.7621,2.7621,2.762,2.762,2.762,0,2.5236,2.5356,2.5551,2.5788,2.5955,2.5961,2.6151,2.629,2.6501,2.667,2.6852,2.7113,2.7329,2.7487,2.7707,2.7828,2.7847,2.7883,2.7876,2.7901,2.7665,2.7604,2.7864,2.7864,2.7863,2.7863,2.7863,2.7863,2.5421,2.5679,2.5749,2.6074,2.6193,2.6428,2.6535,2.668,2.6814,2.7102,2.7281,2.738,2.7544,2.7775,2.7972,2.8013,2.8092,2.8126,2.8168,2.7945,2.7919,2.7894,2.7838,2.8142,2.8142,2.8389,2.8392,2.8393]}]]